sat.trackr.live / text

‹ back to catalog

LING QIAO

NORAD 40136 · 2014-051A

PAYLOAD ACTIVE UNKNOWN

§ Identity

Operator
Country
PRC
Launch date
2014-09-04
Launch site
JSC
Launch vehicle
Mass (kg)
RCS (m²)
0.31

External: N2YO · Heavens-Above · Gunter

§ Orbital elements

Epoch: 2026-09-20T04:45:17.360640Z

Period
100.68 min
Inclination
98.7122°
Eccentricity
0.0019670
Mean motion
14.30283142 rev/d
Perigee alt
776.7 km
Apogee alt
804.9 km
Semi-major
7,168.9 km
B*
3.8813e-5
RAAN
265.0907°
Arg perigee
254.4062°
Mean anomaly
105.4949°
Rev number
62,858

§ Raw data

LING QIAO1 40136U 14051A   26263.19811760  .00000056  00000+0  38813-4 0  99942 40136  98.7122 265.0907 0019670 254.4062 105.4949 14.30283142628589

JSON: /api/v1/satellites/40136 · /tle

For live sub-satellite position, see the globe view (requires WebGL).

§ Visibility from observer

Set your observer location to see the next 7 days of passes ≥ 10°. The values pass through the URL so the page stays shareable.

No JS? Fill the form by hand. The geolocation button needs JavaScript.